Location: Unspecified
(0.0000°N, 0.0000°E)
Time: 18:16:18
(UTC+00:00)

Envisat - Pass Details

Date: 22 July 2017
Orbit: 764 x 766 km, 98.2° (Epoch: 23 September)

Event Time Altitude Azimuth Distance (km) Brightness Sun altitude
Exits shadow 21:03:24 16° 315° (NW) 1,895 5.5 -40.9°
Drops below altitude 10° 21:04:34 10° 323° (NW) 2,293 6.0 -41.2°
Sets 21:07:02 0° 332° (NNW) 3,217 6.8 -41.7°
